ROMMA est une association bénévole à but non lucratif. Votre soutien est indispensable : ADHERER à ROMMA ou FAIRE un DON

Le Versoud - (38, Isère)

Vallée du Grésivaudan (220 m)   Longitude: 05° 51' 44" E   Latitude: 45° 13' 06" N Station partenaire n°6
 

Détail journalier du     <<     >>

Température Humidité Pression Vent Dir Rafale Dir. rafale Ensol.
Heure (°C) (%) (hPa) (km/h) (km/h) (min)
01:00 18.868101202NE0
02:00 17.872101106NE0
03:00 16.875101200---0
04:00 16.575101200---0
05:00 15.481101200---0
06:00 15.181101200---0
07:00 14.383101200---0
08:00 16.675101200---35
09:00 20.359101300---60
10:00 21.253101302NE60
11:00 23.945101202NE60
12:00 25.343101203NE60
13:00 27.539101206NNE35
14:00 28.636101105NE5
15:00 29.22910101NE13NNE10
16:00 29.9311010013NNE15
17:00 30.2281010010N25
18:00 30.429101008N60
19:00 29.435101006NNE45
20:00 28.738101103N60
21:00 26.447101102N55
22:00 24.449101202N0
23:00 23.351101302NNE0
minuit 21.461101300---0

Graphique du 18-07-2019

 

Serveur OMMA